Location: Diebersbach
(48.5163°N, 8.0558°E)
Time: 14:36:33
(UTC+00:00)

Cosmos 1553 Rocket - Pass Details

Date: 20 June 2021
Orbit: 940 x 1009 km, 82.9° (Epoch: 30 July)

Event Time Altitude Azimuth Distance (km) Brightness Sun altitude
Rises 02:01:14 0° 349° (NNW) 3,722 7.8 -10.4°
Reaches altitude 10° 02:03:47 10° 347° (NNW) 2,760 7.0 -10.2°
Maximum altitude 02:10:04 71° 265° (W) 1,030 4.0 -9.6°
Drops below altitude 10° 02:16:12 10° 183° (S) 2,694 5.8 -9.0°
Enters shadow 02:17:53 - 181° (S) 3,324 6.3 -8.8°
